Waarnemingen

Advertentie
Mijn weer
Santander/Parayas, Spanje (8021): temperatuur & dauwpunt: 17.05.2018 01:00:00 - 23.05.2018 01:00:00 (CEST)Santander/Parayas, Spanje (8021): windsnelheid: 17.05.2018 01:00:00 - 23.05.2018 01:00:00 (CEST)Santander/Parayas, Spanje (8021): windrichting: 17.05.2018 01:00:00 - 23.05.2018 01:00:00 (CEST)Santander/Parayas, Spanje (8021): luchtdruk: 17.05.2018 01:00:00 - 23.05.2018 01:00:00 (CEST)Santander/Parayas, Spanje (8021): zicht: 17.05.2018 01:00:00 - 23.05.2018 01:00:00 (CEST)
Datum & Tijd tt [°C] td [°C] ff [km/u] ff [kn] dd ppp [hPa] vv [km]
23.05.2018 01:00:00 16,4 16,4 4 2 WNW 1018,3 -
23.05.2018 00:00:00 16,0 16,0 5 3 W 1018,2 -
22.05.2018 23:00:00 16,6 15,6 4 2 W 1017,8 6
22.05.2018 22:00:00 17,8 15,6 4 2 N 1016,9 -
22.05.2018 21:00:00 19,7 15,6 8 4 N 1016,4 -
22.05.2018 20:00:00 20,4 16,1 11 6 ONO 1016,1 12
22.05.2018 19:00:00 21,3 14,9 13 7 ONO 1016,0 -
22.05.2018 18:00:00 22,5 13,2 13 7 NO 1015,8 -
22.05.2018 17:00:00 22,2 14,9 11 6 NNO 1015,8 12
22.05.2018 16:00:00 22,6 15,9 13 7 N 1015,9 -
22.05.2018 15:00:00 22,5 14,5 13 7 N 1015,9 -
22.05.2018 14:00:00 22,6 13,2 16 9 NNW 1015,9 15
22.05.2018 13:00:00 23,5 11,3 13 7 N 1015,9 -
22.05.2018 12:00:00 21,8 13,9 9 5 ONO 1015,9 -
22.05.2018 11:00:00 21,0 13,6 8 4 NW 1015,5 12
22.05.2018 10:00:00 19,1 14,8 2 1 WNW 1015,4 -
22.05.2018 09:00:00 16,9 15,4 0 0 N 1015,3 -
22.05.2018 08:00:00 13,5 13,5 2 1 ZZO 1015,0 6
22.05.2018 07:00:00 10,7 10,7 0 0 N 1014,5 -
22.05.2018 06:00:00 11,0 11,0 0 0 N 1014,2 -
22.05.2018 05:00:00 11,1 11,1 4 2 ZW 1014,0 -
22.05.2018 04:00:00 11,1 10,6 4 2 ZW 1014,1 -
22.05.2018 03:00:00 12,4 11,9 5 3 WNW 1014,3 -
22.05.2018 02:00:00 12,7 11,8 8 4 ZW 1014,2 -
22.05.2018 01:00:00 13,1 12,0 2 1 W 1014,2 -
22.05.2018 00:00:00 14,2 12,4 4 2 WZW 1014,2 -
21.05.2018 23:00:00 15,0 12,5 5 3 WNW 1013,8 20
21.05.2018 22:00:00 16,3 12,8 8 4 WNW 1013,1 -
21.05.2018 21:00:00 19,3 12,0 5 3 NNW 1012,5 -
21.05.2018 20:00:00 20,7 13,0 5 3 NNW 1012,2 25
21.05.2018 19:00:00 20,6 12,4 9 5 N 1012,1 -
21.05.2018 18:00:00 20,6 14,7 9 5 N 1011,6 -
21.05.2018 17:00:00 20,8 15,8 11 6 NW 1011,5 25
21.05.2018 16:00:00 20,7 14,7 11 6 N 1011,1 -
21.05.2018 15:00:00 20,3 14,8 11 6 N 1011,4 -
21.05.2018 14:00:00 20,6 14,4 11 6 NNW 1011,5 20
21.05.2018 13:00:00 19,4 14,4 16 9 ONO 1011,6 -
21.05.2018 12:00:00 19,7 14,6 11 6 ONO 1011,5 -
21.05.2018 11:00:00 18,7 15,1 11 6 ONO 1011,3 12
21.05.2018 10:00:00 17,9 13,8 5 3 NO 1011,2 -
21.05.2018 09:00:00 15,8 14,5 0 0 N 1011,3 -
21.05.2018 08:00:00 13,0 13,0 0 0 N 1011,2 15
21.05.2018 07:00:00 10,3 10,3 4 2 Z 1011,1 -
21.05.2018 06:00:00 10,4 10,4 4 2 Z 1011,3 -
21.05.2018 05:00:00 10,8 10,8 2 1 ZZW 1011,8 -
21.05.2018 04:00:00 11,3 11,3 2 1 ZO 1012,5 -
21.05.2018 03:00:00 11,8 11,8 4 2 Z 1013,0 -
21.05.2018 02:00:00 13,0 13,0 0 0 N 1013,7 -
21.05.2018 01:00:00 13,6 12,8 4 2 Z 1014,2 -
21.05.2018 00:00:00 15,0 13,9 9 5 O 1014,7 -
20.05.2018 23:00:00 16,1 14,8 11 6 ONO 1014,8 12
20.05.2018 22:00:00 16,6 15,3 15 8 NO 1014,5 -
20.05.2018 21:00:00 17,6 15,2 15 8 ONO 1014,2 -
20.05.2018 20:00:00 18,7 14,4 21 11 NO 1013,8 15
20.05.2018 19:00:00 19,3 14,2 21 11 NO 1013,8 -
20.05.2018 18:00:00 19,6 14,5 21 11 NO 1014,2 -
20.05.2018 17:00:00 20,5 13,8 18 10 NO 1014,7 18
20.05.2018 16:00:00 20,1 13,6 21 11 ONO 1015,7 -
20.05.2018 15:00:00 21,0 11,6 15 8 NO 1016,4 -
20.05.2018 14:00:00 20,9 11,2 11 6 N 1017,0 12
20.05.2018 13:00:00 19,7 13,2 13 7 ONO 1017,6 -
20.05.2018 12:00:00 19,3 14,1 13 7 ONO 1018,1 -
20.05.2018 11:00:00 19,1 13,9 8 4 NO 1018,3 10
20.05.2018 10:00:00 17,6 12,9 2 1 N 1018,5 -
20.05.2018 09:00:00 14,9 13,6 8 4 ZZW 1018,4 -
20.05.2018 08:00:00 13,2 13,2 4 2 Z 1018,2 5
20.05.2018 07:00:00 11,6 11,6 0 0 N 1018,3 -
20.05.2018 06:00:00 11,0 11,0 8 4 ZW 1018,3 -
20.05.2018 05:00:00 11,6 11,6 4 2 WNW 1018,7 -
20.05.2018 04:00:00 12,0 12,0 4 2 Z 1018,9 -
20.05.2018 03:00:00 12,8 12,8 4 2 ZZW 1019,4 -
20.05.2018 02:00:00 14,2 14,0 4 2 ZZO 1019,8 -
20.05.2018 01:00:00 14,8 14,2 0 0 N 1019,9 -
20.05.2018 00:00:00 15,3 13,8 4 2 ZO 1020,0 -
19.05.2018 23:00:00 15,9 14,1 8 4 ONO 1020,0 15
19.05.2018 22:00:00 16,4 14,2 9 5 ONO 1019,5 -
19.05.2018 21:00:00 17,7 14,2 8 4 N 1019,2 -
19.05.2018 20:00:00 19,1 14,1 9 5 NNO 1019,0 20
19.05.2018 19:00:00 19,4 14,4 11 6 NO 1018,9 -
19.05.2018 18:00:00 20,5 15,4 9 5 N 1019,0 -
19.05.2018 17:00:00 20,6 14,9 9 5 NNO 1019,4 15
19.05.2018 16:00:00 20,4 14,8 15 8 N 1019,8 -
19.05.2018 15:00:00 20,2 14,9 13 7 NNW 1020,3 -
19.05.2018 14:00:00 20,7 14,0 11 6 N 1020,3 10
19.05.2018 13:00:00 20,9 14,7 8 4 WNW 1020,3 -
19.05.2018 12:00:00 19,9 15,5 8 4 NW 1020,5 -
19.05.2018 11:00:00 19,0 15,0 5 3 NW 1020,6 5
19.05.2018 10:00:00 17,0 15,2 8 4 NW 1020,6 -
19.05.2018 09:00:00 15,0 15,0 8 4 ZZW 1020,4 -
19.05.2018 08:00:00 12,9 12,9 2 1 Z 1020,0 2,0
19.05.2018 07:00:00 11,6 11,6 2 1 ZZW 1019,8 -
19.05.2018 06:00:00 11,7 11,7 4 2 ZW 1019,4 -
19.05.2018 05:00:00 12,4 12,4 4 2 W 1019,4 -
19.05.2018 04:00:00 13,1 13,1 4 2 WZW 1019,7 -
19.05.2018 03:00:00 13,8 13,5 5 3 W 1020,3 -
19.05.2018 02:00:00 15,0 14,0 0 0 N 1020,7 -
19.05.2018 01:00:00 15,8 14,3 4 2 ONO 1020,9 -
19.05.2018 00:00:00 16,1 14,5 2 1 ZO 1020,9 -
18.05.2018 23:00:00 16,1 14,6 9 5 NO 1020,9 8
18.05.2018 22:00:00 16,1 14,6 9 5 NO 1020,3 -
18.05.2018 21:00:00 16,7 14,4 11 6 ONO 1019,8 -
18.05.2018 20:00:00 17,3 14,6 15 8 ONO 1019,6 10
18.05.2018 19:00:00 18,5 15,0 13 7 ONO 1019,4 -
18.05.2018 18:00:00 18,1 14,5 15 8 ONO 1019,2 -
18.05.2018 17:00:00 19,3 14,7 13 7 NNO 1019,3 10
18.05.2018 16:00:00 20,6 15,4 11 6 N 1019,3 -
18.05.2018 15:00:00 19,4 14,9 13 7 NNO 1019,7 -
18.05.2018 14:00:00 19,7 14,5 2 1 N 1020,4 6
18.05.2018 13:00:00 - - - - - - -
18.05.2018 12:00:00 16,1 13,2 8 4 WNW 1020,9 -
18.05.2018 11:00:00 15,8 13,2 8 4 W 1020,6 5
18.05.2018 10:00:00 15,1 12,8 11 6 ZW 1020,3 -
18.05.2018 09:00:00 14,5 12,5 9 5 ZZW 1020,0 -
18.05.2018 08:00:00 14,0 13,0 11 6 ZZW 1019,7 5
18.05.2018 07:00:00 13,6 13,3 8 4 Z 1019,3 -
18.05.2018 06:00:00 13,3 13,1 8 4 ZZW 1019,0 -
18.05.2018 05:00:00 13,3 13,0 4 2 ZZO 1019,0 -
18.05.2018 04:00:00 13,5 13,0 4 2 WNW 1019,1 -
18.05.2018 03:00:00 13,3 12,8 8 4 ZZW 1019,2 -
18.05.2018 02:00:00 13,8 12,2 2 1 ZZO 1019,7 -
18.05.2018 01:00:00 14,8 12,8 4 2 ONO 1019,9 -
18.05.2018 00:00:00 14,9 12,8 9 5 O 1020,0 -
17.05.2018 23:00:00 15,0 13,0 9 5 ONO 1020,1 20
17.05.2018 22:00:00 15,0 12,7 9 5 NO 1019,7 -
17.05.2018 21:00:00 15,6 12,7 11 6 NO 1019,0 -
17.05.2018 20:00:00 16,3 12,6 13 7 NO 1018,8 15
17.05.2018 19:00:00 17,0 12,7 16 9 ONO 1018,8 -
17.05.2018 18:00:00 17,6 12,9 18 10 ONO 1018,7 -
17.05.2018 17:00:00 17,7 12,8 18 10 ONO 1018,9 20
17.05.2018 16:00:00 17,8 13,4 21 11 ONO 1019,1 -
17.05.2018 15:00:00 18,3 13,1 13 7 ONO 1019,2 -
17.05.2018 14:00:00 17,7 12,9 16 9 ONO 1019,8 15
17.05.2018 13:00:00 17,9 13,1 15 8 N 1019,8 -
17.05.2018 12:00:00 17,8 13,0 11 6 NO 1019,5 -
17.05.2018 11:00:00 16,9 12,6 11 6 ONO 1019,6 15
17.05.2018 10:00:00 16,1 12,6 4 2 O 1019,7 -
17.05.2018 09:00:00 13,8 13,5 4 2 Z 1019,3 -
17.05.2018 08:00:00 10,3 10,3 4 2 WZW 1019,6 10
17.05.2018 07:00:00 8,4 8,4 2 1 W 1019,4 -
17.05.2018 06:00:00 8,8 8,8 0 0 N 1019,6 -
17.05.2018 05:00:00 9,7 9,7 4 2 Z 1019,5 -
17.05.2018 04:00:00 10,6 10,6 2 1 WZW 1019,8 -
17.05.2018 03:00:00 11,0 11,0 4 2 ZZW 1020,2 -
17.05.2018 02:00:00 11,4 11,1 4 2 ZW 1020,8 -
17.05.2018 01:00:00 11,3 10,2 5 3 Z 1021,2 -

tt = temperatuur
td = dauwpunt
ff = windsnelheid
dd = windrichting
ppp = luchtdruk
vv = zicht

Weerstations in de omgeving